Location: Tabor
(49.4170°N, 14.6670°E)
Time: 11:29:02
(UTC+02:00)

ISS - Pass Details

Date: 18 May 2021
Orbit: 417 x 422 km, 51.6° (Epoch: 13 June)

Event Time Altitude Azimuth Distance (km) Brightness Sun altitude
Rises 22:53:07 0° 264° (W) 2,362 0.4 -15.5°
Reaches altitude 10° 22:55:13 10° 268° (W) 1,500 -0.6 -15.7°
Maximum altitude 22:58:34 63° 350° (N) 472 -3.3 -15.9°
Drops below altitude 10° 23:01:55 10° 73° (ENE) 1,505 -1.1 -16.2°
Enters shadow 23:03:32 - 76° (ENE) 2,161 -0.3 -16.3°
